Weather History for KLWB - September, 2012

Change the Weather History Date:

Saturday, September 1, 2012

  Actual Average Record
Temperature  
Mean Temperature 75 °F 67 °F  
Max Temperature 82 °F 79 °F 91 °F (1973)
Min Temperature 68 °F 55 °F 41 °F (1999)
Degree Days  
Heating Degree Days 0    
Month to date heating degree days  
Since 1 July heating degree days  
Cooling Degree Days 10    
Month to date cooling degree days  
Year to date cooling degree days  
Growing Degree Days 25 (Base 50)    
Moisture  
Dew Point 66 °F    
Average Humidity 77    
Maximum Humidity 94    
Minimum Humidity 54    
Precipitation  
Precipitation 0.00 in 0.11 in 0.01 in (2013)
Month to date precipitation 0.11  
Year to date precipitation 28.21  
Snow  
Snow 0.00 in - - ()
Month to date snowfall  
Since 1 July snowfall  
Since 1 September snowfall  
Snow Depth -    
Sea Level Pressure  
Sea Level Pressure 30.22 in    
Wind  
Wind Speed 1 mph (West)    
Max Wind Speed 14 mph    
Max Gust Speed -    
Visibility 10 miles    
Events Rain , Thunderstorm    
T = Trace of Precipitation, MM = Missing Value Source: NWS Daily Summary

Daily Weather History Graph

Daily Weather History Graph

Search for Another Location

Airport or City:

Trip Planner

Search our weather history database for the weather conditions in past years. The results will help you decide how hot, cold, wet, or windy it might be!

Date:

Astronomy

Sep. 01, 2012 Rise Set
Actual Time 6:51 AM EDT 7:50 PM EDT
Civil Twilight 6:25 AM EDT 8:17 PM EDT
Nautical Twilight 5:53 AM EDT 8:48 PM EDT
Astronomical Twilight 5:20 AM EDT 9:21 PM EDT
Moon 8:08 PM EDT 7:55 AM EDT
Length of Visible Light 13h 51m
Length of Day
12h 58m
Full, 99% of the Moon is Illuminated
Sep 1
Full
Sep 8
Last Quarter
Sep 15
New
Sep 22
First Quarter
Sep 29
Full

Hourly Weather History & Observations

Time (EDT) Temp. Heat Index Dew Point Humidity Pressure Visibility Wind Dir Wind Speed Gust Speed Precip Events Conditions
12:15 AM 69.8 °F - 62.6 °F 78% 30.23 in 10.0 mi Calm Calm - N/A   Scattered Clouds
12:35 AM 69.8 °F - 64.4 °F 83% 30.23 in 10.0 mi Calm Calm - N/A   Clear
12:55 AM 69.8 °F - 64.4 °F 83% 30.23 in 10.0 mi Calm Calm - N/A   Clear
1:15 AM 69.8 °F - 64.4 °F 83% 30.23 in 10.0 mi Calm Calm - N/A   Clear
1:35 AM 69.8 °F - 64.4 °F 83% 30.22 in 10.0 mi Calm Calm - N/A   Clear
1:55 AM 69.8 °F - 64.4 °F 83% 30.22 in 10.0 mi Calm Calm - N/A   Clear
2:15 AM 69.8 °F - 64.4 °F 83% 30.22 in 10.0 mi Calm Calm - N/A   Clear
2:35 AM 71.6 °F - 64.4 °F 78% 30.22 in 10.0 mi Calm Calm - N/A   Clear
2:55 AM 69.8 °F - 64.4 °F 83% 30.22 in 10.0 mi Calm Calm - N/A   Scattered Clouds
3:15 AM 68.0 °F - 64.4 °F 88% 30.22 in 10.0 mi Calm Calm - N/A   Scattered Clouds
3:35 AM 69.8 °F - 64.4 °F 83% 30.23 in 10.0 mi Calm Calm - N/A   Scattered Clouds
3:55 AM 69.8 °F - 64.4 °F 83% 30.23 in 10.0 mi Calm Calm - N/A   Clear
4:15 AM 69.8 °F - 64.4 °F 83% 30.23 in 10.0 mi Calm Calm - N/A   Scattered Clouds
4:35 AM 69.8 °F - 64.4 °F 83% 30.22 in 10.0 mi Calm Calm - N/A   Scattered Clouds
4:55 AM 69.8 °F - 64.4 °F 83% 30.22 in 10.0 mi Calm Calm - N/A   Clear
5:15 AM 69.8 °F - 64.4 °F 83% 30.23 in 10.0 mi Calm Calm - N/A   Clear
5:35 AM 69.8 °F - 64.4 °F 83% 30.22 in 10.0 mi Calm Calm - N/A   Clear
5:55 AM 69.8 °F - 64.4 °F 83% 30.23 in 10.0 mi Calm Calm - N/A Thunderstorm Clear
6:15 AM 69.8 °F - 64.4 °F 83% 30.23 in 10.0 mi Calm Calm - N/A   Clear
6:35 AM 69.8 °F - 64.4 °F 83% 30.24 in 10.0 mi Calm Calm - N/A   Clear
6:55 AM 69.8 °F - 64.4 °F 83% 30.24 in 10.0 mi Calm Calm - N/A   Clear
7:15 AM 69.8 °F - 64.4 °F 83% 30.25 in 10.0 mi Calm Calm - N/A   Clear
7:35 AM 69.8 °F - 64.4 °F 83% 30.26 in 10.0 mi Calm Calm - N/A   Clear
7:55 AM 69.8 °F - 66.2 °F 88% 30.26 in 10.0 mi Calm Calm - N/A Rain Light Rain
8:15 AM 69.8 °F - 66.2 °F 88% 30.26 in 10.0 mi Calm Calm - N/A Rain Light Rain
8:35 AM 71.6 °F - 66.2 °F 83% 30.26 in 10.0 mi Calm Calm - N/A   Clear
8:55 AM 71.6 °F - 68.0 °F 88% 30.26 in 10.0 mi Calm Calm - N/A   Clear
9:15 AM 71.6 °F - 68.0 °F 88% 30.26 in 10.0 mi Calm Calm - N/A   Clear
9:35 AM 71.6 °F - 68.0 °F 88% 30.26 in 10.0 mi Calm Calm - N/A   Clear
10:15 AM 75.2 °F - 68.0 °F 78% 30.27 in 10.0 mi WSW 4.6 mph - N/A Rain Light Rain
10:35 AM 75.2 °F - 68.0 °F 78% 30.27 in 10.0 mi West 4.6 mph - N/A Rain Light Rain
10:55 AM 77.0 °F - 68.0 °F 74% 30.27 in 10.0 mi WSW 3.5 mph - N/A Rain Light Rain
11:15 AM 77.0 °F - 68.0 °F 74% 30.27 in 10.0 mi WSW 3.5 mph - N/A   Clear
11:35 AM 77.0 °F - 68.0 °F 74% 30.27 in 10.0 mi West 4.6 mph - N/A   Clear
11:55 AM 78.8 °F - 68.0 °F 69% 30.26 in 10.0 mi WSW 5.8 mph - N/A   Clear
12:15 PM 78.8 °F - 68.0 °F 69% 30.26 in 10.0 mi West 4.6 mph - N/A   Clear
12:35 PM 78.8 °F - 68.0 °F 69% 30.26 in 10.0 mi West 3.5 mph - N/A   Clear
12:55 PM 78.8 °F - 68.0 °F 69% 30.25 in 10.0 mi Calm Calm - N/A   Clear
1:15 PM 80.6 °F 83.2 °F 68.0 °F 65% 30.25 in 10.0 mi South 3.5 mph - N/A   Scattered Clouds
1:35 PM 80.6 °F 82.7 °F 66.2 °F 61% 30.24 in 10.0 mi Calm Calm - N/A   Mostly Cloudy
1:55 PM 82.4 °F 85.4 °F 68.0 °F 62% 30.22 in 10.0 mi SE 3.5 mph - N/A   Scattered Clouds
2:15 PM 82.4 °F 84.6 °F 66.2 °F 58% 30.22 in 10.0 mi East 4.6 mph - N/A   Scattered Clouds
2:35 PM 80.6 °F 83.2 °F 68.0 °F 65% 30.22 in 10.0 mi Calm Calm - N/A Rain Rain
3:15 PM 80.6 °F 83.2 °F 68.0 °F 65% 30.20 in 10.0 mi Calm Calm - N/A   Scattered Clouds
3:35 PM 82.4 °F 84.6 °F 66.2 °F 58% 30.19 in 10.0 mi Calm Calm - N/A   Clear
4:15 PM 82.4 °F 84.6 °F 66.2 °F 58% 30.17 in 10.0 mi Calm Calm - N/A   Scattered Clouds
4:35 PM 82.4 °F 85.4 °F 68.0 °F 62% 30.17 in 10.0 mi SW 5.8 mph - N/A   Clear
5:15 PM 80.6 °F 81.8 °F 62.6 °F 54% 30.17 in 10.0 mi SW 5.8 mph - N/A   Clear
5:35 PM 78.8 °F - 62.6 °F 57% 30.17 in 10.0 mi Calm Calm - N/A   Clear
5:55 PM 78.8 °F - 62.6 °F 57% 30.17 in 10.0 mi Calm Calm - N/A   Scattered Clouds
6:15 PM 78.8 °F - 62.6 °F 57% 30.17 in 10.0 mi Calm Calm - N/A   Scattered Clouds
6:35 PM 78.8 °F - 64.4 °F 61% 30.17 in 10.0 mi NW 3.5 mph - N/A   Scattered Clouds
6:55 PM 78.8 °F - 64.4 °F 61% 30.17 in 10.0 mi Calm Calm - N/A   Scattered Clouds
7:15 PM 78.8 °F - 64.4 °F 61% 30.18 in 10.0 mi Calm Calm - N/A   Mostly Cloudy
7:35 PM 77.0 °F - 64.4 °F 65% 30.18 in 10.0 mi Calm Calm - N/A Rain Light Rain
7:55 PM 73.4 °F - 64.4 °F 73% 30.19 in 10.0 mi Calm Calm - N/A Rain , Thunderstorm Light Thunderstorms and Rain
8:15 PM 71.6 °F - 68.0 °F 88% 30.21 in 10.0 mi SW 13.8 mph - N/A Rain Light Rain
8:35 PM 69.8 °F - 68.0 °F 94% 30.21 in 10.0 mi SW 5.8 mph - N/A Rain Light Rain
8:55 PM 69.8 °F - 68.0 °F 94% 30.21 in 10.0 mi Calm Calm - N/A Rain Light Rain
9:15 PM 69.8 °F - 68.0 °F 94% 30.20 in 10.0 mi Calm Calm - N/A Rain Light Rain
9:35 PM 69.8 °F - 66.2 °F 88% 30.20 in 10.0 mi Calm Calm - N/A   Scattered Clouds
9:55 PM 69.8 °F - 66.2 °F 88% 30.20 in 10.0 mi Calm Calm - N/A   Clear
10:15 PM 69.8 °F - 66.2 °F 88% 30.19 in 10.0 mi NNE 3.5 mph - N/A   Scattered Clouds
10:35 PM 69.8 °F - 66.2 °F 88% 30.19 in 10.0 mi Calm Calm - N/A   Scattered Clouds
10:55 PM 69.8 °F - 66.2 °F 88% 30.18 in 10.0 mi NNE 3.5 mph - N/A   Clear
11:15 PM 69.8 °F - 66.2 °F 88% 30.18 in 10.0 mi NNE 4.6 mph - N/A   Clear
11:35 PM 69.8 °F - 66.2 °F 88% 30.18 in 10.0 mi NNE 4.6 mph - N/A   Clear
11:55 PM 69.8 °F - 66.2 °F 88% 30.18 in 10.0 mi NNE 4.6 mph - N/A   Scattered Clouds